Satellite-Ground Cal/Val Region Overpasses Predictions

Prediction of Satellite NPP Overpassing Cal/Val Region: PacNW

Region Location: (Latitude: 10.00, Longitude: 139.50) to (Latitude: 22.70, Longitude: 165.60).

Table of predicted overpasses for the next 14.0 days since TLE Epoch: 10/26/2015
Interval Starting Time Starting Location Ending Time Ending Location
1 10/26/2015 15:13:57 ( 22.69, 157.12) 10/26/2015 15:17:33 ( 10.01, 154.11)
2 10/27/2015 02:23:03 ( 10.05, 164.65) 10/27/2015 02:26:38 ( 22.68, 161.66)
3 10/27/2015 14:54:54 ( 22.69, 161.88) 10/27/2015 14:58:30 ( 10.01, 158.87)
4 10/28/2015 03:45:29 ( 10.01, 144.04) 10/28/2015 03:49:05 ( 22.69, 141.04)
5 10/28/2015 14:37:04 ( 18.46, 165.60) 10/28/2015 14:39:27 ( 10.06, 163.64)
6 10/28/2015 16:17:22 ( 22.67, 141.25) 10/28/2015 16:19:25 ( 15.45, 139.51)
7 10/29/2015 03:26:27 ( 10.02, 148.80) 10/29/2015 03:30:02 ( 22.64, 145.81)
8 10/29/2015 15:58:19 ( 22.66, 146.01) 10/29/2015 16:01:54 ( 10.04, 143.02)
9 10/30/2015 03:07:24 ( 10.03, 153.55) 10/30/2015 03:10:59 ( 22.65, 150.56)
10 10/30/2015 15:39:17 ( 22.65, 150.76) 10/30/2015 15:42:52 ( 10.03, 147.77)
11 10/31/2015 02:48:22 ( 10.04, 158.31) 10/31/2015 02:51:57 ( 22.66, 155.31)
12 10/31/2015 15:20:14 ( 22.64, 155.52) 10/31/2015 15:23:49 ( 10.02, 152.53)
13 11/01/2015 02:29:19 ( 10.05, 163.06) 11/01/2015 02:32:54 ( 22.67, 160.07)
14 11/01/2015 15:01:11 ( 22.69, 160.29) 11/01/2015 15:04:47 ( 10.01, 157.28)
15 11/02/2015 02:12:59 ( 19.57, 165.59) 11/02/2015 02:13:52 ( 22.68, 164.82)
16 11/02/2015 03:51:46 ( 10.01, 142.46) 11/02/2015 03:55:18 ( 22.46, 139.51)
17 11/02/2015 14:42:09 ( 22.68, 165.04) 11/02/2015 14:45:45 ( 10.00, 162.04)
18 11/02/2015 16:23:38 ( 22.67, 139.67) 11/02/2015 16:23:49 ( 22.03, 139.51)
19 11/03/2015 03:32:43 ( 10.02, 147.21) 11/03/2015 03:36:18 ( 22.64, 144.22)
20 11/03/2015 16:04:36 ( 22.66, 144.42) 11/03/2015 16:08:11 ( 10.04, 141.43)
21 11/04/2015 03:13:41 ( 10.03, 151.97) 11/04/2015 03:17:16 ( 22.66, 148.97)
22 11/04/2015 15:45:34 ( 22.65, 149.18) 11/04/2015 15:49:09 ( 10.03, 146.18)
23
